User: anonymous   Login
Location: Dalton
(34.7700°N, 84.9700°W)
Time: 10:55:44
(UTC-04:00)
Language:

Tiangong 1 - Orbit

View from above orbital plane
View from above orbital plane
View from above satellite
View from above satellite

Ground track
Ground track

The orbit data is extracted from the following two-line orbital elements,

1 37820U 11053A   17291.08884438  .00035772  85990-5  13208-3 0  9990
2 37820  42.7555 163.2437 0020033 240.3493 243.1125 15.88285066347448
Epoch (UTC): 18 October 2017 02:07:56
Eccentricity: 0.0020033
inclination: 42.7555°
perigee height: 294 km
apogee height: 320 km
right ascension of ascending node: 163.2437°
argument of perigee: 240.3493°
revolutions per day: 15.88285066
mean anomaly at epoch: 243.1125°
orbit number at epoch: 34744

The dashed part of the orbit path shows where the satellite is in the earth's shadow,  

DLR